• en France
  • Liste des pays
  • À 7 jours
  • Température de l'eau
  • Carte satellitaire
  • Carte météo
  • Widgets météo
  • user-avatar
    Se connecter

    Météo par heure à Santa Fe

    Ce jour, 14 Novembre, Mercredi

    Heure Température Précipitation Vent Pression Humidité
    00:00 +18°C° 0 mm 4 m/s 755 mmHg 57%
    01:00 +17°C° 0 mm 4 m/s 755 mmHg 57%
    02:00 +17°C° 0 mm 4 m/s 755 mmHg 58%
    03:00 +15°C° 0 mm 4 m/s 755 mmHg 59%
    04:00 +15°C° 0 mm 4 m/s 755 mmHg 59%
    05:00 +16°C° 0 mm 3 m/s 755 mmHg 60%
    06:00 +18°C° 0 mm 4 m/s 755 mmHg 57%
    07:00 +19°C° 0 mm 5 m/s 756 mmHg 54%
    08:00 +21°C° 0 mm 6 m/s 756 mmHg 51%
    09:00 +23°C° 0 mm 6 m/s 756 mmHg 47%
    10:00 +26°C° 0 mm 6 m/s 756 mmHg 42%
    11:00 +27°C° 0 mm 7 m/s 756 mmHg 38%
    12:00 +28°C° 0 mm 7 m/s 756 mmHg 36%
    13:00 +28°C° 0 mm 7 m/s 756 mmHg 35%
    14:00 +29°C° 0 mm 7 m/s 756 mmHg 33%
    15:00 +29°C° 0 mm 5 m/s 755 mmHg 37%
    16:00 +28°C° 0 mm 4 m/s 755 mmHg 41%
    17:00 +28°C° 0 mm 3 m/s 755 mmHg 44%
    18:00 +25°C° 0 mm 3 m/s 755 mmHg 46%
    19:00 +23°C° 0 mm 2 m/s 755 mmHg 47%
    20:00 +21°C° 0 mm 1 m/s 756 mmHg 49%
    21:00 +20°C° 0 mm 1 m/s 756 mmHg 49%
    22:00 +20°C° 0 mm 1 m/s 756 mmHg 49%
    23:00 +19°C° 0 mm 1 m/s 757 mmHg 49%

    Demain, 15 Novembre, Jeudi

    Heure Température Précipitation Vent Pression Humidité
    00:00 +19°C° 0 mm 1 m/s 756 mmHg 51%
    01:00 +18°C° 0 mm 2 m/s 756 mmHg 52%
    02:00 +17°C° 0 mm 2 m/s 756 mmHg 54%
    03:00 +17°C° 0 mm 2 m/s 756 mmHg 56%
    04:00 +17°C° 0 mm 2 m/s 756 mmHg 58%
    05:00 +16°C° 0 mm 2 m/s 756 mmHg 60%
    06:00 +19°C° 0 mm 2 m/s 756 mmHg 57%
    07:00 +22°C° 0 mm 1 m/s 756 mmHg 54%
    08:00 +25°C° 0 mm 1 m/s 756 mmHg 51%
    09:00 +27°C° 0 mm 2 m/s 756 mmHg 46%
    10:00 +29°C° 0 mm 2 m/s 756 mmHg 41%
    11:00 +31°C° 0 mm 2 m/s 756 mmHg 36%
    12:00 +31°C° 0 mm 2 m/s 755 mmHg 35%
    13:00 +33°C° 0 mm 3 m/s 755 mmHg 34%
    14:00 +33°C° 0 mm 3 m/s 754 mmHg 32%
    15:00 +33°C° 0 mm 3 m/s 754 mmHg 36%
    16:00 +31°C° 0 mm 2 m/s 754 mmHg 40%
    17:00 +31°C° 0 mm 2 m/s 753 mmHg 44%
    18:00 +28°C° 0 mm 2 m/s 754 mmHg 49%
    19:00 +26°C° 0 mm 2 m/s 755 mmHg 54%
    20:00 +24°C° 0 mm 2 m/s 756 mmHg 59%
    21:00 +23°C° 0 mm 2 m/s 756 mmHg 61%
    22:00 +21°C° 0 mm 2 m/s 757 mmHg 63%
    23:00 +21°C° 0 mm 2 m/s 758 mmHg 65%

    Après-demain, 16 Novembre, Vendredi

    Heure Température Précipitation Vent Pression Humidité
    00:00 +20°C° 0 mm 2 m/s 758 mmHg 67%
    01:00 +20°C° 0 mm 2 m/s 758 mmHg 68%
    02:00 +19°C° 0 mm 2 m/s 758 mmHg 70%
    03:00 +19°C° 0 mm 3 m/s 758 mmHg 72%
    04:00 +18°C° 0 mm 4 m/s 758 mmHg 73%
    05:00 +18°C° 0 mm 4 m/s 759 mmHg 75%
    06:00 +19°C° 0 mm 5 m/s 759 mmHg 74%
    07:00 +20°C° 0 mm 6 m/s 760 mmHg 72%
    08:00 +21°C° 0 mm 6 m/s 760 mmHg 71%
    09:00 +23°C° 0 mm 6 m/s 760 mmHg 67%
    10:00 +26°C° 0 mm 6 m/s 759 mmHg 63%
    11:00 +28°C° 0 mm 5 m/s 759 mmHg 59%
    12:00 +29°C° 0 mm 5 m/s 758 mmHg 56%
    13:00 +30°C° 0 mm 5 m/s 758 mmHg 53%
    14:00 +32°C° 0 mm 5 m/s 757 mmHg 51%
    15:00 +30°C° 0 mm 5 m/s 756 mmHg 54%
    16:00 +30°C° 0 mm 4 m/s 756 mmHg 57%
    17:00 +30°C° 0 mm 4 m/s 755 mmHg 60%
    18:00 +28°C° 0 mm 4 m/s 755 mmHg 65%
    19:00 +27°C° 0 mm 4 m/s 755 mmHg 71%
    20:00 +25°C° 0 mm 4 m/s 755 mmHg 76%
    21:00 +25°C° 0 mm 4 m/s 755 mmHg 78%
    22:00 +23°C° 0 mm 4 m/s 755 mmHg 80%
    23:00 +23°C° 0 mm 4 m/s 755 mmHg 82%

    17 Novembre, Samedi

    Heure Température Précipitation Vent Pression Humidité
    00:00 +22°C° 0 mm 4 m/s 754 mmHg 84%
    01:00 +22°C° 0 mm 4 m/s 754 mmHg 85%
    02:00 +21°C° 0 mm 4 m/s 753 mmHg 87%
    03:00 +21°C° 0 mm 4 m/s 753 mmHg 88%
    04:00 +20°C° 0 mm 4 m/s 752 mmHg 88%
    05:00 +20°C° 0 mm 3 m/s 752 mmHg 89%
    06:00 +22°C° 0 mm 4 m/s 752 mmHg 83%
    07:00 +23°C° 0 mm 4 m/s 752 mmHg 77%
    08:00 +26°C° 0 mm 4 m/s 752 mmHg 71%
    09:00 +28°C° 0.5 mm 3 m/s 752 mmHg 67%
    10:00 +29°C° 0.5 mm 3 m/s 752 mmHg 64%
    11:00 +31°C° 0.5 mm 2 m/s 752 mmHg 60%
    12:00 +32°C° 0.1 mm 2 m/s 751 mmHg 58%
    13:00 +34°C° 0.1 mm 3 m/s 751 mmHg 56%
    14:00 +35°C° 0.1 mm 3 m/s 751 mmHg 54%
    15:00 +33°C° 1.6 mm 4 m/s 751 mmHg 60%
    16:00 +32°C° 1.6 mm 5 m/s 751 mmHg 66%
    17:00 +29°C° 1.6 mm 6 m/s 751 mmHg 72%
    18:00 +27°C° 0 mm 7 m/s 752 mmHg 66%
    19:00 +26°C° 0 mm 7 m/s 753 mmHg 60%
    20:00 +23°C° 0 mm 7 m/s 754 mmHg 55%
    21:00 +22°C° 0 mm 6 m/s 755 mmHg 53%
    22:00 +21°C° 0 mm 5 m/s 756 mmHg 52%
    23:00 +19°C° 0 mm 4 m/s 757 mmHg 50%

    18 Novembre, Dimanche

    Heure Température Précipitation Vent Pression Humidité
    00:00 +18°C° 0 mm 4 m/s 757 mmHg 51%
    01:00 +18°C° 0 mm 4 m/s 757 mmHg 51%
    02:00 +17°C° 0 mm 4 m/s 757 mmHg 52%
    03:00 +15°C° 0 mm 4 m/s 758 mmHg 56%
    04:00 +15°C° 0 mm 4 m/s 759 mmHg 59%
    05:00 +14°C° 0 mm 4 m/s 759 mmHg 63%
    06:00 +17°C° 0 mm 4 m/s 760 mmHg 58%
    07:00 +17°C° 0 mm 5 m/s 760 mmHg 53%
    08:00 +20°C° 0 mm 5 m/s 761 mmHg 49%
    09:00 +21°C° 0 mm 4 m/s 761 mmHg 43%
    10:00 +23°C° 0 mm 4 m/s 761 mmHg 36%
    11:00 +26°C° 0 mm 4 m/s 761 mmHg 30%
    12:00 +26°C° 0 mm 3 m/s 761 mmHg 29%
    13:00 +27°C° 0 mm 3 m/s 761 mmHg 28%
    14:00 +27°C° 0 mm 2 m/s 760 mmHg 27%
    15:00 +27°C° 0 mm 2 m/s 760 mmHg 30%
    16:00 +27°C° 0 mm 2 m/s 760 mmHg 33%
    17:00 +27°C° 0 mm 1 m/s 759 mmHg 36%
    18:00 +25°C° 0 mm 1 m/s 760 mmHg 38%
    19:00 +22°C° 0 mm 1 m/s 760 mmHg 40%
    20:00 +20°C° 0 mm 1 m/s 761 mmHg 43%
    21:00 +19°C° 0 mm 1 m/s 761 mmHg 45%
    22:00 +19°C° 0 mm 1 m/s 761 mmHg 47%
    23:00 +18°C° 0 mm 1 m/s 761 mmHg 50%

    19 Novembre, Lundi

    Heure Température Précipitation Vent Pression Humidité
    00:00 +16°C° 0 mm 1 m/s 761 mmHg 52%
    01:00 +16°C° 0 mm 1 m/s 761 mmHg 54%
    02:00 +15°C° 0 mm 1 m/s 761 mmHg 56%
    03:00 +15°C° 0 mm 2 m/s 761 mmHg 58%
    04:00 +15°C° 0 mm 2 m/s 761 mmHg 60%
    05:00 +14°C° 0 mm 2 m/s 761 mmHg 63%
    06:00 +16°C° 0 mm 3 m/s 761 mmHg 60%
    07:00 +18°C° 0 mm 3 m/s 762 mmHg 58%
    08:00 +20°C° 0 mm 4 m/s 762 mmHg 56%
    09:00 +22°C° 0 mm 4 m/s 762 mmHg 51%
    10:00 +25°C° 0 mm 4 m/s 761 mmHg 47%
    11:00 +27°C° 0 mm 4 m/s 761 mmHg 43%
    12:00 +28°C° 0 mm 4 m/s 760 mmHg 41%
    13:00 +28°C° 0 mm 4 m/s 759 mmHg 39%
    14:00 +29°C° 0 mm 4 m/s 758 mmHg 38%
    15:00 +29°C° 0 mm 4 m/s 758 mmHg 41%
    16:00 +28°C° 0 mm 4 m/s 757 mmHg 44%
    17:00 +28°C° 0 mm 4 m/s 756 mmHg 47%
    18:00 +26°C° 0 mm 4 m/s 757 mmHg 52%
    19:00 +23°C° 0 mm 4 m/s 757 mmHg 57%
    20:00 +20°C° 0 mm 4 m/s 757 mmHg 62%
    21:00 +20°C° 0 mm 4 m/s 757 mmHg 64%
    22:00 +19°C° 0 mm 3 m/s 757 mmHg 66%
    23:00 +18°C° 0 mm 3 m/s 758 mmHg 68%
    Voir plus